Weather in Demuryne

Ukraine / Dnipropetrovsk Region     48°10′47″N   36°28′15″E
temp.,
°C
wind,
m/s
gust,
m/s
humid.,
%
clouds,
%
prec.,
mm/h
press.,
hPa
HPBL,
m
26 january, tue
tue2623:00+4se81767100 0.0 1007562
02:00+4sse91880100 0.3 1004558
05:00+4ssw8168088 1.7 1006960
08:00+3ssw7148469 1.7 1010657
11:00+5ssw7127267 0.0 1012772
14:00+7s4106583 0.0 1011771
17:00+7sse81684100 0.0 1011657
20:00+7sse91787100 0.0 1009576
27 january, wed
wed2723:00+7sse91692100 0.7 1010472
02:00+6sse71394100 2.9 1009418
05:00+5se71290100 1.2 1007310
08:00+6sse71485100 1.2 1007433
11:00+7sse61081100 0.0 1007365
14:00+8se71276100 0.0 1005459
17:00+7se61276100 0.0 1005311
20:00+5se91574100 0.0 1004363
28 january, thu
thu2823:00+3se81383100 0.0 1003327
02:00+3se71386100 0.0 1002341
05:00+3ese71385100 0.0 1002289
08:00+3se81584100 0.0 1002326
11:00+6sse81474100 0.0 1003640
14:00+7sse6881100 0.0 1004701
17:00+5sse4989100 0.1 1005278
20:00+3s41081100 0.1 1006358
29 january, fri
fri2923:00+1s5127599 0.0 1005417
02:00+1s5137988 0.0 1004516
05:000sse6148633 0.0 1003705
08:00+1s8128929 0.1 1002831
11:000sw81290100 0.6 1001953
14:00+1sw8116499 0.8 10011187
17:00−1sw5116933 0.0 1001710
20:00−2wsw6108854 0.1 1002819
30 january, sat
sat3023:00−2wsw6873100 0.1 10031012
02:00−3wsw6971100 0.1 1003884
05:00−3wsw5117684 0.0 1003689
08:00−3sw6116954 0.0 1004831
11:000wsw7105662 0.0 10041002
14:00+1sw585577 0.0 1004785
17:00−1sw3660100 0.0 1004158
20:00−1ssw2371100 0.0 100354